Simultaneous Nadir Overpasses (SNOs) Predictions

Prediction of SNOs between METOP-A and NOAA-19 Satellite Orbit:

Table of predicted SNOs for the next 14.0 days since TLE Epoch: 10/12/2019
Index Date (METOP-A) Time (METOP-A) Lat,Lon (METOP-A) SZA (METOP-A ) Date (NOAA-19) Time (NOAA-19) Lat,Lon (NOAA-19) SZA (NOAA-19 ) Distance(km) Time Diff (sec)
1 10/14/2019 23:27:45 -80.01, 20.82 91.33 10/14/2019 23:26:35 -80.03, 20.93 91.33 2.72 70
2 10/15/2019 00:18:25 80.03,-171.71 88.70 10/15/2019 00:17:32 80.02,-171.75 88.69 0.85 53
3 10/15/2019 01:09:06 -80.03, -4.33 91.28 10/15/2019 01:08:35 -80.01, -4.33 91.31 2.39 31
4 10/15/2019 01:59:47 80.01, 162.84 88.71 10/15/2019 01:59:32 80.01, 162.98 88.71 2.92 15
5 10/15/2019 02:50:28 -80.02, -29.78 91.27 10/15/2019 02:50:36 -80.01, -29.91 91.28 2.48 8
6 10/15/2019 03:41:09 80.00, 137.39 88.72 10/15/2019 03:41:33 80.01, 137.40 88.74 0.96 24
7 10/15/2019 04:31:50 -80.01, -55.23 91.26 10/15/2019 04:32:36 -80.00, -55.18 91.26 1.62 46
8 10/15/2019 05:22:31 79.99, 111.94 88.73 10/15/2019 05:23:33 79.99, 112.13 88.76 3.68 62
9 10/25/2019 23:50:33 80.05,-164.72 92.67 10/25/2019 23:49:22 80.05,-164.60 92.67 2.26 71
10 10/26/2019 00:41:14 -80.05, 2.69 87.31 10/26/2019 00:40:27 -80.04, 2.76 87.33 2.43 47
11 10/26/2019 01:31:55 80.03, 169.83 92.68 10/26/2019 01:31:23 80.05, 169.81 92.69 2.11 32
12 10/26/2019 02:22:36 -80.04, -22.76 87.30 10/26/2019 02:22:28 -80.04, -22.82 87.30 1.01 8
13 10/26/2019 03:13:16 80.05, 144.67 92.73 10/26/2019 03:13:23 80.04, 144.54 92.71 3.08 7




NCC Satellite Simultaneous Nadir Overpasses (SNOs) Prediction Service
